[[{"header":{"parameterUnit":"m.s-1","parameterCategory":1,"la1":30.2991,"la2":30.254,"lo1":-89.0895,"lo2":-89.0444,"dy":0.0017,"dx":0.0017,"nx":28,"ny":28,"refTime":"2024-03-29T03:00:00:Z","depth":0,"parameterNumber":2,"parameterNumberName":"U-component_of_WINDS"},"data":[0,0,0,0,0,0,0,0,0,0,0,0,0,0,0,0,0,0,0,0,0,0,0,0,0,0,0,0,0,0,0,0,0,0,0,0,0,0,0,0,0,0,0,0,0,0,0,0,0,0,0,0,0,0,0,0,0,0,-1.9863,-1.9863,0,-1.9848,-1.9848,-1.9848,-1.9805,-1.9804,-1.9803,-1.9802,-1.9787,-1.9788,-1.9788,0,0,0,0,0,0,0,0,0,0,0,0,0,-1.9857,-1.9857,-1.9863,-1.9863,-1.9863,-1.9848,-1.9848,-1.9848,-1.9805,-1.9804,-1.9803,-1.9801,-1.9787,-1.9788,-1.9788,0,0,0,0,0,0,0,0,0,0,0,0,0,-1.9852,-1.9857,-1.9863,-1.984,-1.9837,-1.9848,-1.9848,-1.9847,-1.9805,-1.9804,-1.9802,-1.9801,-1.9787,-1.9788,-1.9788,-1.9821,0,0,-1.9791,-1.9791,0,0,0,0,0,0,0,0,-1.9853,-1.9853,-1.9843,-1.9841,-1.9839,-1.9827,-1.984,-1.9839,-1.9805,-1.9817,-1.9802,-1.98,-1.9802,-1.9801,-1.9801,-1.982,-1.982,-1.9791,-1.9791,-1.9792,-1.9792,0,0,0,0,0,0,0,-1.9853,-1.9853,-1.9857,-1.9843,-1.984,-1.983,-1.9828,-1.984,-1.9818,-1.9816,-1.9813,-1.9812,-1.98,-1.9801,-1.9801,-1.982,-1.9791,-1.9791,-1.9792,-1.9792,-1.9865,-1.9866,0,0,0,0,0,0,-1.9856,-1.9854,-1.9857,-1.9857,-1.9842,-1.9832,-1.9829,-1.9832,-1.9817,-1.9814,-1.9813,-1.981,-1.98,-1.98,-1.98,-1.9836,-1.9792,-1.9792,-1.9793,-1.9863,-1.9865,-1.9867,0,0,0,0,0,0,-1.9856,-1.9857,-1.9858,-1.9854,-1.9854,-1.9833,-1.9837,-1.9832,-1.9833,-1.9815,-1.9811,-1.9817,-1.9799,-1.9799,-1.9816,-1.9835,-1.9793,-1.9793,-1.9861,-1.9864,-1.9866,-1.991,0,0,0,0,0,0,-1.9856,-1.9857,-1.9869,-1.9855,-1.9854,-1.9874,-1.9838,-1.9833,-1.9834,-1.983,-1.9818,-1.9815,-1.9798,-1.9815,-1.9817,-1.9835,-1.9794,-1.986,-1.9862,-1.9865,-1.9907,-1.9913,-1.9919,0,0,0,0,0,-1.9856,-1.9882,-1.987,-1.987,-1.9868,-1.9875,-1.9875,-1.9854,-1.9836,-1.9847,-1.9836,-1.9815,-1.9834,-1.9817,-1.9819,-1.9838,-1.9858,-1.9862,-1.9865,-1.9904,-1.9912,-1.9919,0,0,0,0,0,0,-1.9899,-1.988,-1.9866,-1.9888,-1.9883,-1.9868,-1.9881,-1.9864,-1.9865,-1.9861,-1.9836,-1.9834,-1.9854,-1.9848,-1.9831,-1.9869,-1.9842,-1.9846,-1.9872,-1.9879,-1.9885,-1.9885,-1.9794,0,0,0,0,0,-1.9911,-1.9918,-1.9901,-1.9922,-1.9921,-1.9902,-1.9904,-1.9889,-1.9884,-1.9882,-1.9872,-1.9868,-1.9872,-1.9876,-1.9879,-1.9907,-1.9903,-1.9921,-1.9927,-1.9932,-1.9935,-1.9949,-1.9956,-1.9878,-1.9878,-1.9878,0,0,-1.9936,-1.9926,-1.9932,-1.9931,-1.9925,-1.9933,-1.99,-1.991,-1.9916,-1.9883,-1.9898,-1.9891,-1.9885,-1.9907,-1.9917,-1.9903,-1.9957,-1.9937,-1.9941,-1.9941,-1.9953,-1.996,-1.9967,-1.988,-1.9879,-1.9879,0,0,-1.9984,-1.9978,-1.9994,-1.999,-1.9983,-1.9971,-1.9975,-1.9962,-1.9956,-1.9971,-1.9947,-1.9954,-1.9963,-1.9959,-1.9959,-2.0009,-1.9989,-2.0011,-2.0043,-2.0056,-2.0062,-2.0067,-2.0084,-2.009,-2.0014,-2.0014,-2.0014,0,-2.0015,-2.0026,-2.0005,-2.0017,-2.0017,-1.9988,-2.0005,-2.0002,-1.9997,-1.9998,-1.9983,-1.9994,-1.9988,-2.0008,-2.0021,-2.0022,-2.0025,-2.001,-2.0063,-2.0068,-2.0073,-2.0088,-2.0094,-2.0017,-2.0017,-2.0016,-2.0016,0,-2.0064,-2.0072,-2.0087,-2.0082,-2.0084,-2.0098,-2.008,-2.0085,-2.0071,-2.0061,-2.0076,-2.0069,-2.007,-2.0075,-2.0061,-2.0094,-2.0085,-2.0067,-2.004,-2.0083,-2.0097,-2.0103,-2.002,-2.002,-2.0019,-2.0018,0,0,-2.0136,-2.0121,-2.0126,-2.0124,-2.0115,-2.0121,-2.0135,-2.0136,-2.014,-2.0138,-2.0149,-2.0158,-2.0141,-2.0141,-2.0127,-2.0139,-2.0178,-2.012,-2.0119,-2.0129,-2.0213,-2.0224,-2.0231,-2.0166,-2.0167,-2.0168,-2.0212,0,-2.018,-2.0201,-2.0184,-2.0208,-2.0215,-2.019,-2.0202,-2.0198,-2.0189,-2.0195,-2.0185,-2.0192,-2.017,-2.017,-2.0181,-2.0171,-2.0194,-2.0168,-2.0175,-2.0175,-2.0174,-2.0239,-2.0251,-2.0293,-2.0218,-2.0219,-2.022,0,-2.0234,-2.0234,-2.0259,-2.0249,-2.0251,-2.0262,-2.0262,-2.0268,-2.0263,-2.0256,-2.0257,-2.024,-2.0253,-2.0229,-2.0246,-2.0229,-2.0231,-2.0227,-2.0229,-2.0226,-2.0198,-2.0237,-2.0306,-2.0312,-2.0228,-2.0228,-2.0227,0,-2.0281,-2.0289,-2.0304,-2.0303,-2.0292,-2.03,-2.0296,-2.0291,-2.0293,-2.0294,-2.0295,-2.0298,-2.0299,-2.0301,-2.0286,-2.027,-2.0306,-2.028,-2.0299,-2.03,-2.0306,-2.0305,-2.0374,-2.0311,-2.0311,-2.0311,-2.0311,0,-2.0331,-2.0347,-2.0325,-2.0335,-2.0352,-2.0334,-2.0351,-2.0345,-2.0341,-2.0349,-2.0328,-2.0336,-2.0317,-2.0323,-2.0312,-2.0328,-2.0329,-2.0323,-2.0319,-2.0323,-2.0324,-2.0323,-2.0319,-2.0313,-2.0313,-2.0312,-2.0312,0,-2.0386,-2.0372,-2.0387,-2.0376,-2.0374,-2.0387,-2.0378,-2.0387,-2.0378,-2.0388,-2.039,-2.0376,-2.0382,-2.0368,-2.0373,-2.0365,-2.0387,-2.038,-2.0388,-2.0385,-2.0405,-2.0403,-2.0474,-2.0482,-2.0416,-2.0417,-2.0418,0,-2.0417,-2.0428,-2.0419,-2.0423,-2.042,-2.0427,-2.0429,-2.0412,-2.0415,-2.0412,-2.0421,-2.0426,-2.0429,-2.0441,-2.0431,-2.0435,-2.0426,-2.0451,-2.0426,-2.043,-2.0424,-2.0423,-2.0424,-2.0455,-2.0456,-2.0457,-2.0457,0,-2.0473,-2.0466,-2.047,-2.0472,-2.0475,-2.0476,-2.0475,-2.048,-2.0462,-2.0467,-2.0473,-2.0476,-2.0481,-2.0486,-2.0488,-2.0484,-2.0468,-2.0466,-2.047,-2.0473,-2.0477,-2.0473,-2.04,-2.0464,-2.0463,-2.0462,-2.0462,-2.0462,-2.0516,-2.0525,-2.0519,-2.0525,-2.0523,-2.0523,-2.053,-2.0523,-2.0528,-2.053,-2.0521,-2.0529,-2.0526,-2.0527,-2.0525,-2.0532,-2.052,-2.0527,-2.0529,-2.053,-2.0532,-2.0478,-2.0532,-2.0532,-2.0532,-2.0532,-2.0532,0,-2.0569,-2.0565,-2.057,-2.057,-2.0574,-2.056,-2.0559,-2.0563,-2.0571,-2.0569,-2.0573,-2.0581,-2.0586,-2.0578,-2.0581,-2.0589,-2.0581,-2.059,-2.0588,-2.0587,-2.0543,-2.0538,-2.0596,-2.0596,-2.0596,-2.0596,-2.0596,-2.0596,-2.0597,-2.0611,-2.0604,-2.0618,-2.0614,-2.0622,-2.0623,-2.0623,-2.0621,-2.0631,-2.0635,-2.063,-2.0626,-2.0629,-2.0634,-2.0631,-2.0633,-2.0644,-2.0639,-2.0597,-2.059,-2.0584,-2.0579,-2.0645,-2.0645,-2.0682,-2.0682,-2.0683]},{"header":{"parameterUnit":"m.s-1","parameterCategory":1,"la1":30.2991,"la2":30.254,"lo1":-89.0895,"lo2":-89.0444,"dy":0.0017,"dx":0.0017,"nx":28,"ny":28,"refTime":"2024-03-29T03:00:00:Z","depth":0,"parameterNumber":3,"parameterNumberName":"V-component_of_WINDS"},"data":[0,0,0,0,0,0,0,0,0,0,0,0,0,0,0,0,0,0,0,0,0,0,0,0,0,0,0,0,0,0,0,0,0,0,0,0,0,0,0,0,0,0,0,0,0,0,0,0,0,0,0,0,0,0,0,0,0,0,3.3276,3.3275,0,3.3176,3.3175,3.3174,3.3166,3.3167,3.3169,3.317,3.3064,3.306,3.3056,0,0,0,0,0,0,0,0,0,0,0,0,0,3.3458,3.3455,3.3276,3.3275,3.3274,3.3177,3.3175,3.3174,3.3166,3.3168,3.3169,3.317,3.3065,3.306,3.3056,0,0,0,0,0,0,0,0,0,0,0,0,0,3.3371,3.3454,3.3276,3.3258,3.3256,3.3177,3.3175,3.3173,3.3166,3.3168,3.3169,3.3171,3.3066,3.3061,3.3055,3.2986,0,0,3.3038,3.3035,0,0,0,0,0,0,0,0,3.3376,3.3364,3.3262,3.3259,3.3256,3.3186,3.32,3.3111,3.3165,3.32,3.317,3.3172,3.3103,3.3094,3.3072,3.2981,3.2977,3.3037,3.3034,3.3031,3.3029,0,0,0,0,0,0,0,3.3382,3.3368,3.3237,3.3261,3.3257,3.3254,3.3244,3.3183,3.3143,3.3197,3.3196,3.3185,3.3101,3.3077,3.3069,3.2975,3.3037,3.3032,3.3028,3.3026,3.2826,3.2825,0,0,0,0,0,0,3.3392,3.3373,3.324,3.3234,3.3321,3.325,3.3238,3.3207,3.3144,3.3136,3.3183,3.3185,3.3086,3.3076,3.3065,3.2982,3.3031,3.3026,3.3022,3.2828,3.2826,3.2824,0,0,0,0,0,0,3.3396,3.338,3.3244,3.3303,3.3286,3.3245,3.321,3.3204,3.318,3.3134,3.3126,3.3166,3.3087,3.3073,3.3007,3.2979,3.3023,3.3018,3.283,3.2827,3.2825,3.2815,0,0,0,0,0,0,3.3401,3.3381,3.3355,3.3303,3.3283,3.3188,3.3208,3.3201,3.317,3.3171,3.3115,3.3108,3.3087,3.3016,3.3001,3.2971,3.3013,3.2833,3.2829,3.2826,3.2818,3.2813,3.2808,0,0,0,0,0,3.3407,3.3355,3.3354,3.3338,3.3249,3.3186,3.3174,3.3153,3.3168,3.3141,3.3112,3.311,3.2984,3.3009,3.2992,3.2961,3.2834,3.283,3.2826,3.282,3.2814,3.2808,0,0,0,0,0,0,3.3403,3.3348,3.3346,3.3275,3.3236,3.3185,3.315,3.3146,3.3101,3.3103,3.3077,3.3065,3.3,3.2973,3.3002,3.2892,3.2911,3.2903,3.2912,3.2905,3.29,3.2908,3.3009,0,0,0,0,0,3.3394,3.3348,3.3302,3.3244,3.3225,3.3191,3.3162,3.315,3.3107,3.309,3.3056,3.3014,3.2965,3.2934,3.2886,3.2814,3.2803,3.2784,3.2779,3.2775,3.2769,3.2731,3.2723,3.281,3.281,3.281,0,0,3.3374,3.3339,3.3311,3.3242,3.321,3.3163,3.3177,3.3126,3.3091,3.3082,3.3018,3.2992,3.2943,3.2874,3.2842,3.285,3.2743,3.277,3.2767,3.2763,3.2726,3.2718,3.2711,3.2807,3.2808,3.2808,0,0,3.3315,3.3283,3.3233,3.3201,3.3153,3.3131,3.3119,3.307,3.3052,3.2988,3.2981,3.2939,3.2855,3.2822,3.2793,3.2724,3.2721,3.2709,3.2683,3.2647,3.264,3.2634,3.2611,3.2603,3.2703,3.2703,3.2703,0,3.3297,3.3227,3.3207,3.3157,3.3127,3.3119,3.3068,3.3038,3.2976,3.2956,3.2966,3.2863,3.2829,3.2753,3.2737,3.2714,3.27,3.2716,3.2643,3.2636,3.263,3.2608,3.2599,3.2702,3.2703,3.2703,3.2703,0,3.3207,3.3159,3.3123,3.3067,3.3033,3.2983,3.2955,3.2923,3.2914,3.2891,3.2827,3.2787,3.2732,3.2713,3.2702,3.2636,3.2643,3.2648,3.2667,3.2621,3.26,3.2591,3.2701,3.2701,3.2702,3.2702,0,0,3.3141,3.3076,3.3064,3.3039,3.2987,3.2948,3.2898,3.2846,3.282,3.2778,3.2736,3.2667,3.2672,3.264,3.2626,3.2593,3.2544,3.2603,3.2601,3.2594,3.2471,3.2468,3.2459,3.2541,3.254,3.2538,3.2475,0,3.3078,3.299,3.2971,3.2894,3.285,3.2843,3.2799,3.2762,3.274,3.2699,3.2674,3.2626,3.2636,3.2617,3.2585,3.2557,3.2519,3.2561,3.2502,3.25,3.2516,3.2447,3.2444,3.2386,3.2467,3.2465,3.2464,0,3.2991,3.295,3.287,3.2826,3.2807,3.2768,3.272,3.2681,3.2639,3.2625,3.2591,3.2581,3.2529,3.255,3.2477,3.2507,3.2481,3.2464,3.2462,3.2456,3.248,3.2441,3.2367,3.2359,3.2451,3.2452,3.2453,0,3.2954,3.2878,3.2821,3.2799,3.2746,3.2719,3.2695,3.2655,3.2626,3.2584,3.2565,3.2517,3.2491,3.2454,3.2431,3.2448,3.2361,3.238,3.2349,3.235,3.2331,3.2333,3.2254,3.2313,3.2313,3.2314,3.2314,0,3.2885,3.2837,3.2804,3.2769,3.2715,3.2694,3.264,3.2616,3.2581,3.2542,3.2531,3.2494,3.2466,3.2424,3.2406,3.235,3.2338,3.2326,3.2322,3.2327,3.2329,3.2311,3.2315,3.2311,3.2312,3.2312,3.2313,0,3.2834,3.281,3.2748,3.2703,3.2691,3.2653,3.2614,3.258,3.2559,3.2508,3.2495,3.2461,3.2412,3.2386,3.2324,3.2312,3.225,3.2247,3.2265,3.2263,3.2234,3.2238,3.2142,3.2129,3.2196,3.2195,3.2195,0,3.2792,3.2756,3.2708,3.2682,3.2658,3.2615,3.2586,3.2564,3.2534,3.2485,3.2457,3.2408,3.2368,3.229,3.226,3.2213,3.221,3.2179,3.2203,3.221,3.2211,3.2214,3.2211,3.2176,3.2175,3.2174,3.2174,0,3.2722,3.2712,3.2672,3.2628,3.2594,3.2557,3.2521,3.25,3.2472,3.2439,3.239,3.2359,3.2298,3.2249,3.2201,3.2176,3.217,3.2167,3.2158,3.2164,3.2176,3.2171,3.2255,3.2169,3.217,3.217,3.217,3.2171,3.2675,3.2643,3.2605,3.2561,3.2532,3.2499,3.2466,3.2441,3.24,3.235,3.2339,3.2288,3.2248,3.2183,3.2156,3.2116,3.2122,3.2108,3.2104,3.2102,3.2102,3.2182,3.2107,3.2107,3.2107,3.2107,3.2107,0,3.2605,3.2582,3.2541,3.2492,3.2458,3.2457,3.2418,3.2389,3.2344,3.2309,3.227,3.2215,3.2169,3.2135,3.2088,3.2062,3.2059,3.2051,3.2053,3.2048,3.2098,3.2112,3.2055,3.2055,3.2055,3.2055,3.2055,3.2055,3.2565,3.2512,3.2498,3.243,3.2406,3.2357,3.2335,3.2305,3.2277,3.2216,3.2178,3.2157,3.2123,3.2074,3.2032,3.2023,3.2007,3.1999,3.199,3.2038,3.2044,3.2049,3.2062,3.1995,3.1995,3.1944,3.1943,3.1943]}]]